This is the latest recevied weather packets stored in our database for station/object KI8L. If no packets are shown the sender has not sent any weather packets the latest 10 day(s).
| Time | Temp. | Humidity | Pressure | Rain* | Wind** | Luminosity | Snow |
|---|---|---|---|---|---|---|---|
| 1777908790 | 18.89° C | 60% | 1010.3 hPa | 0 mm | - | 607 W/m² | - |
| 1777908486 | 18.33° C | 63% | 1010.2 hPa | 0 mm | - | 589 W/m² | - |
| 1777908183 | 18.33° C | 58% | 1010.2 hPa | 0 mm | - | 593 W/m² | - |
| 1777907879 | 18.33° C | 59% | 1010.3 hPa | 0 mm | - | 571 W/m² | - |
| 1777907575 | 18.33° C | 60% | 1010.2 hPa | 0 mm | - | 566 W/m² | - |
| 1777907271 | 17.78° C | 63% | 1010.3 hPa | 0 mm | - | 549 W/m² | - |
| 1777906967 | 18.33° C | 62% | 1010.2 hPa | 0 mm | - | 523 W/m² | - |
| 1777906665 | 17.78° C | 62% | 1010.2 hPa | 0 mm | - | 540 W/m² | - |
| 1777906361 | 17.78° C | 61% | 1010.1 hPa | 0 mm | - | 534 W/m² | - |
| 1777906058 | 17.22° C | 63% | 1010.2 hPa | 0 mm | - | 517 W/m² | - |
| 1777905754 | 17.22° C | 63% | 1010.4 hPa | 0 mm | - | 501 W/m² | - |
| 1777905452 | 17.22° C | 64% | 1010.4 hPa | 0 mm | - | 480 W/m² | - |
| 1777905149 | 16.67° C | 64% | 1010.4 hPa | 0 mm | - | 486 W/m² | - |
| 1777904846 | 16.67° C | 65% | 1010.5 hPa | 0 mm | - | 470 W/m² | - |
| 1777904543 | 16.67° C | 60% | 1010.5 hPa | 0 mm | - | 477 W/m² | - |
| 1777904240 | 16.67° C | 64% | 1010.6 hPa | 0 mm | - | 474 W/m² | - |
| 1777903937 | 16.11° C | 65% | 1010.7 hPa | 0 mm | - | 454 W/m² | - |
| 1777903634 | 16.11° C | 65% | 1011 hPa | 0 mm | - | 426 W/m² | - |
| 1777903329 | 15.56° C | 66% | 1010.9 hPa | 0 mm | - | 419 W/m² | - |
| 1777903027 | 15.56° C | 65% | 1010.9 hPa | 0 mm | - | 413 W/m² | - |
| 1777902723 | 16.11° C | 63% | 1011.1 hPa | 0 mm | - | 405 W/m² | - |
| 1777902420 | 15.56° C | 66% | 1010.9 hPa | 0 mm | - | 400 W/m² | - |
| 1777902116 | 15.56° C | 63% | 1011 hPa | 0 mm | - | 387 W/m² | - |
| 1777901815 | 15.56° C | 65% | 1011 hPa | 0 mm | - | 367 W/m² | - |
| 1777901512 | 15.56° C | 67% | 1011.1 hPa | 0 mm | - | 359 W/m² | - |
* Rain latest hour (hover to see other rain measurements)
** Current wind speed in m/s (hover to see current wind gust speed)